User: anonymous   Login
Location: Vancouver
(49.2500°N, 123.1330°W)
Time: 12:18:27
(UTC-07:00)
Language:

Cosmos 1408 Rocket - Orbit

View from above orbital plane
View from above orbital plane
View from above satellite
View from above satellite

Ground track
Ground track

The orbit data is extracted from the following two-line orbital elements,

1 13553U 82092B   15107.85881610  .00000736  00000-0  85407-4 0  9993
2 13553 082.5683 251.2157 0022628 136.7094 016.1006 14.83857566759675
Epoch (UTC): 17 April 2015 20:36:41
Eccentricity: 0.0022628
inclination: 82.5683°
perigee height: 601 km
apogee height: 633 km
right ascension of ascending node: 251.2157°
argument of perigee: 136.7094°
revolutions per day: 14.83857566
mean anomaly at epoch: 16.1006°
orbit number at epoch: 75967

The dashed part of the orbit path shows where the satellite is in the earth's shadow,  

DLR